Forside
METAR-TAF:

METAR-TAF

Lufthavne :

Chōfu, Japan

Breddekreds: 35-40N, længdekreds: 139-32E, højde: 41 m

Aktuelle vejr

Denne rapport blev lavet for 19 minutter siden, kl. 03:00 UTC
Vind 5 kt fra nordøst, varierende mellem nord og øst
Temperatur 25°C
Fugtighed 50%
Tryk 1009 hPa
Sigt 10 km eller mere
Nogle få skyer i en højde af 3000 ft
Spredte skyer i en højde af 5000 ft

METAR: RJTF 070300Z 05005KT 010V100 9999 FEW030 SCT050 25/14 Q1009

Tid: 12:19 (03:19 UTC)


TAF: fraværende

Vejrobservationer og prognoser fra mere end 4000 lufthavne (METAR og TAF).

De gule og røde prikker repræsenterer de meteorologiske stationer.

Flyt musen over at se navnet på stationen.

Så klik over at se vejr observationer og prognoser.

At skifte det kort: Klik på de grønne knapper med et sort kors for at zoome ind; på den grønne knap med en bindestreg for at zoome ud; eller på de grønne pile for tilstødende kort.


METAR-TAF: